| time (UTC) | temp C | wind direction | speed KPH | gust KPH | rain 1hr cm | rain 24hr cm | rain mn cm | humidity % | barometer mb |
| 20260504044048 | 14 | 42 | 1.6 | 4.8 | 0.00 | 0.00 | 0.00 | 70 | 1016.2 |
| 20260504043549 | 14 | 79 | 1.6 | 3.2 | 0.00 | 0.00 | 0.00 | 70 | 1016.2 |
| 20260504043112 | 14 | 94 | 0.0 | 3.2 | 0.00 | 0.00 | 0.00 | 70 | 1016.2 |
| 20260504042553 | 14 | 53 | 0.0 | 4.8 | 0.00 | 0.00 | 0.00 | 69 | 1016.2 |
| 20260504042052 | 14 | 44 | 0.0 | 4.8 | 0.00 | 0.00 | 0.00 | 69 | 1016.1 |
| 20260504041555 | 14 | 53 | 0.0 | 4.8 | 0.00 | 0.00 | 0.00 | 69 | 1016.2 |
| 20260504041051 | 14 | 63 | 0.0 | 4.8 | 0.00 | 0.00 | 0.00 | 68 | 1016.1 |
| 20260504040555 | 14 | 81 | 0.0 | 4.8 | 0.00 | 0.00 | 0.00 | 68 | 1016.1 |
| 20260504035555 | 14 | 44 | 1.6 | 4.8 | 0.00 | 0.00 | 0.00 | 68 | 1016.3 |
| 20260504035051 | 14 | 75 | 0.0 | 3.2 | 0.00 | 0.00 | 0.00 | 68 | 1016.3 |
| 20260504034556 | 14 | 0 | 0.0 | 3.2 | 0.00 | 0.00 | 0.00 | 68 | 1016.3 |
| 20260504034051 | 14 | 62 | 0.0 | 3.2 | 0.00 | 0.00 | 0.00 | 68 | 1016.4 |
| 20260504033548 | 15 | 65 | 0.0 | 3.2 | 0.00 | 0.00 | 0.00 | 68 | 1016.4 |
| 20260504033104 | 15 | 65 | 0.0 | 1.6 | 0.00 | 0.00 | 0.00 | 68 | 1016.5 |
| 20260504032548 | 15 | 0 | 0.0 | 3.2 | 0.00 | 0.00 | 0.00 | 67 | 1016.5 |
| 20260504032048 | 15 | 66 | 0.0 | 3.2 | 0.00 | 0.00 | 0.00 | 67 | 1016.6 |
| 20260504031558 | 15 | 0 | 0.0 | 3.2 | 0.00 | 0.00 | 0.00 | 66 | 1016.6 |
| 20260504031050 | 15 | 0 | 0.0 | 1.6 | 0.00 | 0.00 | 0.00 | 66 | 1016.6 |
| 20260504030548 | 15 | 64 | 0.0 | 3.2 | 0.00 | 0.00 | 0.00 | 66 | 1016.7 |
| 20260504030104 | 15 | 64 | 0.0 | 3.2 | 0.00 | 0.00 | 0.00 | 65 | 1016.7 |
| 20260504025551 | 15 | 0 | 0.0 | 1.6 | 0.00 | 0.00 | 0.00 | 64 | 1016.7 |
| 20260504025049 | 15 | 0 | 0.0 | 3.2 | 0.00 | 0.00 | 0.00 | 64 | 1016.6 |
| 20260504024553 | 15 | 58 | 0.0 | 3.2 | 0.00 | 0.00 | 0.00 | 63 | 1016.7 |
| 20260504024048 | 15 | 51 | 0.0 | 3.2 | 0.00 | 0.00 | 0.00 | 63 | 1016.5 |
| 20260504023548 | 15 | 0 | 0.0 | 3.2 | 0.00 | 0.00 | 0.00 | 63 | 1016.5 |
| 20260504023054 | 16 | 0 | 0.0 | 4.8 | 0.00 | 0.00 | 0.00 | 62 | 1016.5 |
| 20260504022552 | 16 | 0 | 0.0 | 4.8 | 0.00 | 0.00 | 0.00 | 62 | 1016.5 |
| 20260504022052 | 16 | 0 | 0.0 | 4.8 | 0.00 | 0.00 | 0.00 | 61 | 1016.5 |
| 20260504021556 | 16 | 70 | 0.0 | 3.2 | 0.00 | 0.00 | 0.00 | 61 | 1016.4 |
| 20260504021051 | 16 | 82 | 0.0 | 3.2 | 0.00 | 0.00 | 0.00 | 61 | 1016.4 |
| 20260504020554 | 16 | 74 | 0.0 | 3.2 | 0.00 | 0.00 | 0.00 | 61 | 1016.2 |
| 20260504020105 | 16 | 0 | 0.0 | 3.2 | 0.00 | 0.00 | 0.00 | 61 | 1016.4 |
| 20260504015549 | 16 | 0 | 0.0 | 1.6 | 0.00 | 0.00 | 0.00 | 60 | 1016.3 |
| 20260504015052 | 16 | 0 | 0.0 | 1.6 | 0.00 | 0.00 | 0.00 | 59 | 1016.2 |
| 20260504014605 | 16 | 61 | 0.0 | 1.6 | 0.00 | 0.00 | 0.00 | 59 | 1016.2 |
| 20260504014051 | 16 | 62 | 0.0 | 1.6 | 0.00 | 0.00 | 0.00 | 58 | 1016.1 |
| 20260504013554 | 16 | 62 | 0.0 | 1.6 | 0.00 | 0.00 | 0.00 | 57 | 1016.1 |
| 20260504013059 | 17 | 0 | 0.0 | 1.6 | 0.00 | 0.00 | 0.00 | 57 | 1016.0 |
| 20260504012550 | 17 | 0 | 0.0 | 1.6 | 0.00 | 0.00 | 0.00 | 56 | 1016.0 |
| 20260504012048 | 17 | 0 | 0.0 | 1.6 | 0.00 | 0.00 | 0.00 | 55 | 1016.1 |
| 20260504011554 | 17 | 61 | 0.0 | 1.6 | 0.00 | 0.00 | 0.00 | 54 | 1016.1 |
| 20260504011048 | 17 | 0 | 0.0 | 1.6 | 0.00 | 0.00 | 0.00 | 53 | 1016.0 |
| 20260504010548 | 18 | 0 | 0.0 | 1.6 | 0.00 | 0.00 | 0.00 | 52 | 1016.0 |
| 20260504010100 | 18 | 0 | 0.0 | 1.6 | 0.00 | 0.00 | 0.00 | 51 | 1016.0 |
| 20260504005549 | 18 | 60 | 0.0 | 1.6 | 0.00 | 0.00 | 0.00 | 50 | 1016.0 |
| 20260504005050 | 19 | 60 | 0.0 | 1.6 | 0.00 | 0.00 | 0.00 | 49 | 1016.1 |
| 20260504004554 | 19 | 0 | 0.0 | 1.6 | 0.00 | 0.00 | 0.00 | 48 | 1016.1 |
| 20260504004051 | 20 | 0 | 0.0 | 1.6 | 0.00 | 0.00 | 0.00 | 47 | 1016.1 |
| 20260504003551 | 20 | 60 | 0.0 | 4.8 | 0.00 | 0.00 | 0.00 | 45 | 1016.1 |
| 20260504003058 | 20 | 59 | 0.0 | 4.8 | 0.00 | 0.00 | 0.00 | 45 | 1016.1 |
| 20260504002551 | 21 | 64 | 1.6 | 4.8 | 0.00 | 0.00 | 0.00 | 44 | 1016.1 |
| 20260504002051 | 21 | 50 | 1.6 | 4.8 | 0.00 | 0.00 | 0.00 | 43 | 1016.1 |
| 20260504001601 | 21 | 75 | 1.6 | 8.0 | 0.00 | 0.00 | 0.00 | 42 | 1016.0 |
| 20260504001049 | 21 | 64 | 1.6 | 8.0 | 0.00 | 0.00 | 0.00 | 41 | 1016.0 |
| 20260504000548 | 22 | 93 | 0.0 | 9.7 | 0.00 | 0.00 | 0.00 | 40 | 1016.0 |
| 20260504000104 | 22 | 360 | 3.2 | 9.7 | 0.00 | 0.00 | 0.00 | 39 | 1016.1 |
| 20260503235553 | 22 | 98 | 3.2 | 8.0 | 0.00 | 0.00 | 0.00 | 39 | 1016.2 |
| 20260503235053 | 23 | 79 | 1.6 | 8.0 | 0.00 | 0.00 | 0.00 | 37 | 1016.2 |
| 20260503234555 | 23 | 75 | 3.2 | 8.0 | 0.00 | 0.00 | 0.00 | 36 | 1016.1 |
| 20260503234048 | 23 | 15 | 3.2 | 6.4 | 0.00 | 0.00 | 0.00 | 36 | 1016.2 |
| 20260503233553 | 23 | 84 | 0.0 | 6.4 | 0.00 | 0.00 | 0.00 | 37 | 1016.4 |
| 20260503233055 | 23 | 51 | 1.6 | 12.9 | 0.00 | 0.00 | 0.00 | 35 | 1016.4 |
| 20260503232555 | 23 | 6 | 1.6 | 12.9 | 0.00 | 0.00 | 0.00 | 36 | 1016.5 |
| 20260503232051 | 23 | 51 | 3.2 | 16.1 | 0.00 | 0.00 | 0.00 | 35 | 1016.5 |
| 20260503231556 | 23 | 25 | 3.2 | 16.1 | 0.00 | 0.00 | 0.00 | 35 | 1016.4 |
| 20260503231049 | 23 | 352 | 1.6 | 12.9 | 0.00 | 0.00 | 0.00 | 35 | 1016.5 |
| 20260503230549 | 23 | 318 | 4.8 | 12.9 | 0.00 | 0.00 | 0.00 | 32 | 1016.6 |
| 20260503230110 | 24 | 70 | 3.2 | 16.1 | 0.00 | 0.00 | 0.00 | 32 | 1016.6 |
| 20260503225548 | 24 | 21 | 4.8 | 16.1 | 0.00 | 0.00 | 0.00 | 33 | 1016.6 |
| 20260503225048 | 24 | 72 | 3.2 | 16.1 | 0.00 | 0.00 | 0.00 | 33 | 1016.7 |
| 20260503224554 | 24 | 43 | 1.6 | 12.9 | 0.00 | 0.00 | 0.00 | 33 | 1016.8 |
| 20260503224048 | 24 | 290 | 4.8 | 17.7 | 0.00 | 0.00 | 0.00 | 32 | 1016.9 |
| 20260503223552 | 24 | 63 | 6.4 | 17.7 | 0.00 | 0.00 | 0.00 | 32 | 1017.0 |
| 20260503223112 | 24 | 78 | 3.2 | 12.9 | 0.00 | 0.00 | 0.00 | 34 | 1017.1 |
| 20260503222551 | 25 | 73 | 1.6 | 12.9 | 0.00 | 0.00 | 0.00 | 34 | 1017.1 |
| 20260503222051 | 25 | 101 | 6.4 | 12.9 | 0.00 | 0.00 | 0.00 | 31 | 1017.1 |
| 20260503221555 | 25 | 297 | 3.2 | 11.3 | 0.00 | 0.00 | 0.00 | 32 | 1017.2 |
| 20260503221052 | 25 | 70 | 3.2 | 20.9 | 0.00 | 0.00 | 0.00 | 33 | 1017.2 |
| 20260503220548 | 25 | 84 | 1.6 | 20.9 | 0.00 | 0.00 | 0.00 | 34 | 1017.3 |
| 20260503220058 | 25 | 65 | 3.2 | 11.3 | 0.00 | 0.00 | 0.00 | 32 | 1017.3 |
| 20260503215548 | 25 | 71 | 3.2 | 9.7 | 0.00 | 0.00 | 0.00 | 32 | 1017.3 |
| 20260503215048 | 25 | 84 | 3.2 | 11.3 | 0.00 | 0.00 | 0.00 | 33 | 1017.4 |
| 20260503214557 | 25 | 140 | 3.2 | 11.3 | 0.00 | 0.00 | 0.00 | 32 | 1017.5 |
| 20260503214048 | 25 | 37 | 3.2 | 11.3 | 0.00 | 0.00 | 0.00 | 32 | 1017.5 |
| 20260503213551 | 25 | 19 | 4.8 | 11.3 | 0.00 | 0.00 | 0.00 | 32 | 1017.6 |
| 20260503213053 | 25 | 96 | 3.2 | 11.3 | 0.00 | 0.00 | 0.00 | 34 | 1017.6 |
| 20260503212552 | 25 | 98 | 3.2 | 8.0 | 0.00 | 0.00 | 0.00 | 33 | 1017.6 |
| 20260503212051 | 25 | 51 | 3.2 | 9.7 | 0.00 | 0.00 | 0.00 | 31 | 1017.7 |
| 20260503211552 | 25 | 77 | 3.2 | 12.9 | 0.00 | 0.00 | 0.00 | 34 | 1018.0 |
| 20260503211050 | 25 | 156 | 4.8 | 12.9 | 0.00 | 0.00 | 0.00 | 34 | 1018.0 |
| 20260503210550 | 25 | 32 | 3.2 | 9.7 | 0.00 | 0.00 | 0.00 | 32 | 1018.0 |
| 20260503210055 | 25 | 79 | 4.8 | 12.9 | 0.00 | 0.00 | 0.00 | 37 | 1018.2 |
| 20260503205550 | 25 | 108 | 3.2 | 12.9 | 0.00 | 0.00 | 0.00 | 36 | 1018.1 |
| 20260503205050 | 25 | 74 | 3.2 | 9.7 | 0.00 | 0.00 | 0.00 | 34 | 1018.2 |
| 20260503204555 | 25 | 62 | 1.6 | 9.7 | 0.00 | 0.00 | 0.00 | 39 | 1018.2 |
| 20260503204050 | 24 | 84 | 4.8 | 9.7 | 0.00 | 0.00 | 0.00 | 34 | 1018.2 |
| 20260503203549 | 24 | 63 | 4.8 | 9.7 | 0.00 | 0.00 | 0.00 | 36 | 1018.4 |
| 20260503203057 | 25 | 95 | 1.6 | 9.7 | 0.00 | 0.00 | 0.00 | 35 | 1018.4 |
| 20260503202551 | 24 | 55 | 1.6 | 17.7 | 0.00 | 0.00 | 0.00 | 35 | 1018.4 |
| 20260503202051 | 24 | 82 | 1.6 | 17.7 | 0.00 | 0.00 | 0.00 | 36 | 1018.6 |
| 20260503201554 | 24 | 18 | 3.2 | 11.3 | 0.00 | 0.00 | 0.00 | 33 | 1018.6 |
| 20260503201052 | 24 | 102 | 3.2 | 11.3 | 0.00 | 0.00 | 0.00 | 35 | 1018.7 |
| 20260503200550 | 23 | 61 | 3.2 | 12.9 | 0.00 | 0.00 | 0.00 | 36 | 1018.9 |
| 20260503200100 | 23 | 85 | 3.2 | 16.1 | 0.00 | 0.00 | 0.00 | 36 | 1019.1 |
| 20260503195551 | 23 | 69 | 6.4 | 16.1 | 0.00 | 0.00 | 0.00 | 34 | 1019.2 |
| 20260503195050 | 23 | 335 | 4.8 | 14.5 | 0.00 | 0.00 | 0.00 | 34 | 1019.4 |
| 20260503194624 | 23 | 6 | 4.8 | 12.9 | 0.00 | 0.00 | 0.00 | 34 | 1019.5 |
| 20260503194053 | 23 | 39 | 6.4 | 12.9 | 0.00 | 0.00 | 0.00 | 35 | 1019.5 |
| 20260503193550 | 23 | 298 | 4.8 | 12.9 | 0.00 | 0.00 | 0.00 | 38 | 1019.5 |
| 20260503193101 | 23 | 37 | 4.8 | 9.7 | 0.00 | 0.00 | 0.00 | 37 | 1019.6 |
| 20260503192549 | 23 | 120 | 3.2 | 14.5 | 0.00 | 0.00 | 0.00 | 39 | 1019.6 |
| 20260503192055 | 23 | 58 | 4.8 | 14.5 | 0.00 | 0.00 | 0.00 | 37 | 1019.7 |
| 20260503191601 | 23 | 338 | 1.6 | 12.9 | 0.00 | 0.00 | 0.00 | 39 | 1019.8 |
| 20260503191050 | 23 | 92 | 6.4 | 16.1 | 0.00 | 0.00 | 0.00 | 39 | 1019.9 |
| 20260503190551 | 23 | 311 | 4.8 | 16.1 | 0.00 | 0.00 | 0.00 | 38 | 1020.0 |
| 20260503190056 | 23 | 306 | 6.4 | 17.7 | 0.00 | 0.00 | 0.00 | 37 | 1020.1 |
| 20260503185549 | 23 | 285 | 3.2 | 17.7 | 0.00 | 0.00 | 0.00 | 41 | 1020.1 |
| 20260503185054 | 23 | 56 | 6.4 | 14.5 | 0.00 | 0.00 | 0.00 | 40 | 1020.2 |
| 20260503184553 | 23 | 2 | 4.8 | 19.3 | 0.00 | 0.00 | 0.00 | 40 | 1020.2 |
| 20260503184050 | 23 | 78 | 4.8 | 19.3 | 0.00 | 0.00 | 0.00 | 40 | 1020.4 |
| 20260503183550 | 23 | 53 | 3.2 | 11.3 | 0.00 | 0.00 | 0.00 | 40 | 1020.5 |
| 20260503183058 | 23 | 142 | 3.2 | 11.3 | 0.00 | 0.00 | 0.00 | 45 | 1020.6 |
| 20260503182550 | 22 | 86 | 4.8 | 11.3 | 0.00 | 0.00 | 0.00 | 40 | 1020.7 |
| 20260503182050 | 22 | 103 | 3.2 | 11.3 | 0.00 | 0.00 | 0.00 | 41 | 1020.7 |
| 20260503181605 | 22 | 302 | 4.8 | 11.3 | 0.00 | 0.00 | 0.00 | 40 | 1021.0 |
| 20260503181055 | 22 | 86 | 4.8 | 11.3 | 0.00 | 0.00 | 0.00 | 40 | 1020.9 |
| 20260503180551 | 22 | 75 | 3.2 | 16.1 | 0.00 | 0.00 | 0.00 | 43 | 1020.9 |
| 20260503180055 | 22 | 58 | 4.8 | 16.1 | 0.00 | 0.00 | 0.00 | 41 | 1021.0 |
| 20260503175551 | 22 | 33 | 4.8 | 12.9 | 0.00 | 0.00 | 0.00 | 38 | 1021.1 |
| 20260503175050 | 22 | 81 | 4.8 | 17.7 | 0.00 | 0.00 | 0.00 | 40 | 1021.1 |
| 20260503174556 | 22 | 37 | 3.2 | 17.7 | 0.00 | 0.00 | 0.00 | 45 | 1021.3 |
| 20260503174050 | 22 | 75 | 4.8 | 14.5 | 0.00 | 0.00 | 0.00 | 40 | 1021.4 |
| 20260503173550 | 22 | 68 | 3.2 | 14.5 | 0.00 | 0.00 | 0.00 | 42 | 1021.5 |
| 20260503173100 | 22 | 356 | 1.6 | 9.7 | 0.00 | 0.00 | 0.00 | 40 | 1021.6 |
| 20260503172551 | 22 | 71 | 4.8 | 9.7 | 0.00 | 0.00 | 0.00 | 44 | 1021.7 |
| 20260503172049 | 22 | 46 | 3.2 | 11.3 | 0.00 | 0.00 | 0.00 | 40 | 1021.7 |
| 20260503171552 | 22 | 92 | 4.8 | 11.3 | 0.00 | 0.00 | 0.00 | 40 | 1021.8 |
| 20260503171050 | 21 | 4 | 3.2 | 14.5 | 0.00 | 0.00 | 0.00 | 41 | 1021.9 |
| 20260503170551 | 21 | 87 | 6.4 | 14.5 | 0.00 | 0.00 | 0.00 | 44 | 1022.1 |
| 20260503150550 | 18 | 37 | 3.2 | 11.3 | 0.00 | 0.00 | 0.00 | 52 | 1022.8 |
| 20260503131050 | 12 | 84 | 0.0 | 6.4 | 0.00 | 0.00 | 0.00 | 80 | 1022.8 |
| 20260503130550 | 11 | 78 | 0.0 | 6.4 | 0.00 | 0.00 | 0.00 | 83 | 1022.9 |
| 20260503120105 | 5 | 0 | 0.0 | 1.6 | 0.00 | 0.00 | 0.00 | 99 | 1022.5 |
| 20260503110551 | 4 | 0 | 0.0 | 0.0 | 0.00 | 0.00 | 0.00 | 98 | 1021.8 |
| 20260503081553 | 6 | 0 | 0.0 | 0.0 | 0.00 | 0.00 | 0.00 | 94 | 1021.6 |
| 20260503081049 | 6 | 0 | 0.0 | 0.0 | 0.00 | 0.00 | 0.00 | 94 | 1021.5 |
| 20260503080551 | 6 | 0 | 0.0 | 0.0 | 0.00 | 0.00 | 0.00 | 94 | 1021.5 |
| 20260503072556 | 6 | 0 | 0.0 | 0.0 | 0.00 | 0.00 | 0.00 | 92 | 1021.5 |
| 20260503072052 | 6 | 0 | 0.0 | 0.0 | 0.00 | 0.00 | 0.00 | 91 | 1021.5 |
| 20260503071557 | 6 | 0 | 0.0 | 0.0 | 0.00 | 0.00 | 0.00 | 90 | 1021.5 |
| 20260503071051 | 7 | 0 | 0.0 | 0.0 | 0.00 | 0.00 | 0.00 | 90 | 1021.4 |
| 20260503070551 | 7 | 0 | 0.0 | 0.0 | 0.00 | 0.00 | 0.00 | 90 | 1021.4 |
| 20260503055051 | 9 | 0 | 0.0 | 1.6 | 0.00 | 0.00 | 0.00 | 82 | 1021.3 |
| 20260503054559 | 9 | 0 | 0.0 | 1.6 | 0.00 | 0.00 | 0.00 | 82 | 1021.2 |
| 20260503054051 | 9 | 0 | 0.0 | 1.6 | 0.00 | 0.00 | 0.00 | 82 | 1021.3 |
| 20260503053548 | 9 | 0 | 0.0 | 0.0 | 0.00 | 0.00 | 0.00 | 82 | 1021.3 |
| 20260503053052 | 8 | 0 | 0.0 | 0.0 | 0.00 | 0.00 | 0.00 | 82 | 1021.4 |
| 20260503052552 | 9 | 0 | 0.0 | 0.0 | 0.00 | 0.00 | 0.00 | 81 | 1021.4 |
| 20260503052052 | 9 | 0 | 0.0 | 0.0 | 0.00 | 0.00 | 0.00 | 80 | 1021.3 |
| 20260503051553 | 9 | 0 | 0.0 | 0.0 | 0.00 | 0.00 | 0.00 | 80 | 1021.2 |
| 20260503051051 | 10 | 0 | 0.0 | 1.6 | 0.00 | 0.00 | 0.00 | 80 | 1021.2 |
| 20260503050551 | 10 | 0 | 0.0 | 1.6 | 0.00 | 0.00 | 0.00 | 79 | 1021.1 |
| 20260503050100 | 10 | 0 | 0.0 | 0.0 | 0.00 | 0.00 | 0.00 | 78 | 1021.1 |
| 20260503045553 | 10 | 0 | 0.0 | 1.6 | 0.00 | 0.00 | 0.00 | 77 | 1021.1 |
| 20260503045052 | 10 | 0 | 0.0 | 1.6 | 0.00 | 0.00 | 0.00 | 77 | 1021.0 |
| 20260503044612 | 10 | 0 | 0.0 | 1.6 | 0.00 | 0.00 | 0.00 | 77 | 1021.0 |